Other Surface Observations
Issued by NWS Tucson, AZ

Home | Current Version | Previous Version | Text Only | Print | Product List | Glossary On
Versions: 1 2 3 4 5 6 7 8 9 10 11 12 13 14 15 16 17 18 19 20 21 22 23 24 25 26 27 28 29 30 31 32 33 34 35 36 37 38 39 40 41 42 43 44 45 46 47 48 49 50
000
SXUS55 KTWC 262215
OSOTWC

WEATHER ROUNDUP FOR SOUTHEAST ARIZONA
NATIONAL WEATHER SERVICE TUCSON AZ
315 PM MST THU MAR 26 2015

AZZ504>506-514-262315-
LOCATION       SKY/WX    TMP DP  RH WIND       PRES   REMARKS
TUCSON         SUNNY     84  21  10 VRB3      30.08F
DAVIS-MONTHAN  SUNNY     82  21  10 S2        30.06F
CHILDRENS PARK N/A       83  23  11 E1                PIMA CO DEQ
ALVERNON/22ND  N/A      N/A N/A N/A N/A               PIMA CO DEQ
CHERRY/GLENN   N/A      N/A N/A N/A N/A               PIMA CO DEQ
TANGERINE      N/A       84 N/A N/A SW1               PIMA CO DEQ
CONTL RANCH    N/A       86  25  11 W6                PIMA CO DEQ
GRANT/1ST      N/A       83  23  11 NE2               PIMA CO DEQ
CRAYCROFT/22ND N/A      N/A N/A N/A N/A               PIMA CO DEQ
GOLFLINKS/KOLB N/A       82  20  10 NW2               PIMA CO DEQ
AJO/12TH       N/A       82  20  10 NW1               PIMA CO DEQ
SAGUARO EAST   N/A      N/A N/A N/A N/A               PIMA CO DEQ
FAIRGROUNDS    N/A       81 N/A N/A E4                PIMA CO DEQ
SAGUARO        N/A       86  21   9 SW6G11            *SABINO CYN
SAN CARLOS     N/A       80  16   9 E5G10             *SAN CARLOS
GREEN VALLEY   N/A       82  22  11 N7                PIMA CO DEQ
HORSE CAMP CYN N/A       75  12   9 SE7G13            *ARAVAIPA CYN
RINCON MTNS    N/A       64  22  20 SW2G10            *NR MANNING CAMP
$$

AZZ509>511-262315-
LOCATION       SKY/WX    TMP DP  RH WIND       PRES   REMARKS
SAFFORD        SUNNY     76  17  11 MISG      30.13F
STRAY HORSE    N/A       61  13  15 SW5G11            *
TRAIL CABIN    N/A       67  18  15 NW6G10            *N OF GRANVILLE
BLACK HILLS    N/A       78  12   8 SE6G13            *N OF FT THOMAS
DRY LAKE       N/A       63  11  13 S6G10             *NATANES MTNS
NOON CREEK     N/A       70  23  17 NE8G14            *PINALENO MTNS
COLUMBINE      N/A       53  12  19 SW4G11            *PINALENO MTNS
GUTHRIE        N/A       63  16  16 SE5G14            *SW OF GUTHRIE
$$

AZZ502-503-513-262315-
LOCATION       SKY/WX    TMP DP  RH WIND       PRES   REMARKS
NOGALES        SUNNY     82  22  11 N12G18    30.11F
SELLS          N/A       88  25  10 NE6G14            *
SASABE         N/A       82  24  12 N8G16             *ALTAR VLY
HOPKINS        N/A       72  25  17 W6G11             *SANTA RITA MTNS
CARR CYN       N/A       73  24  16 NE6G11            *W OF HEREFORD
$$

AZZ507-508-512-262315-
LOCATION       SKY/WX    TMP DP  RH WIND       PRES   REMARKS
SIERRA VISTA   SUNNY     74  19  12 VRB3      30.18F
DOUGLAS        SUNNY     74  26  16 CALM      30.16F
EMPIRE MTNS    N/A       76  22  13 SW4G16            *LAS CIENEGAS NCA
MULESHOE RANCH N/A       76  22  13 SW4G19            *PRESERVE
HEADQUARTERS   N/A       73  19  13 NW4G10            *CHIRICAHUA MTNS
$$

.............................NOTES.............................
THIS IS AN AUTOMATED COLLECTIVE WITH MINIMAL QUALITY CONTROL.
PIMA CO DEQ SITES HAVE NONSTANDARD WIND SENSOR HEIGHTS.
PIMA CO DEQ SITES DO NOT REPORT WIND GUSTS.
* INDICATES WIND SENSORS LOCATED AT 20 FEET INSTEAD OF 33 FEET.
..............................KEY..............................
SKY/WX - SKY CONDITION/WEATHER
TMP    - TEMPERATURE IN FAHRENHEIT
DP     - DEWPOINT IN FAHRENHEIT
RH     - RELATIVE HUMIDITY IN PERCENT
WIND   - DIRECTION AND SPEED IN MILES PER HOUR (MPH)
VRB    - VARIABLE WIND DIRECTION
PRES   - MEAN SEA LEVEL PRESSURE IN INCHES OF MERCURY
         F - FALLING PRESSURE   R - RISING PRESSURE
         S - STEADY PRESSURE
VSB    - VISIBILITY IN MILES
HX     - HEAT INDEX IN FAHRENHEIT
WCI    - WIND CHILL INDEX IN FAHRENHEIT
N/A    - NOT AVAILABLE
AFB    - AIR FORCE BASE
         DAVIS-MONTHAN IS DAVIS-MONTHAN AIR FORCE BASE
CYN    - CANYON
MTNS   - MOUNTAINS
NCA    - NATIONAL CONSERVATION AREA
NR     - NEAR
VLY    - VALLEY
CONTL  - CONTINENTAL
PIMA CO DEQ - PIMA COUNTY DEPT OF ENVIRONMENTAL QUALITY



USA.gov is the U.S. government's official web portal to all federal, state and local government web resources and services.